| time (UTC) | temp F | wind direction | speed knots | gust knots | rain 1hr in | rain 24hr in | rain mn in | humidity % | barometer mb |
| 20260831111511 | 63 | 180 | 0.0 | 0.0 | 0.00 | 0.00 | 0.00 | 66 | 1008.7 |
| 20260831110011 | 62 | 180 | 0.0 | 0.0 | 0.00 | 0.00 | 0.00 | 66 | 1008.4 |
| 20260831104517 | 63 | 180 | 0.0 | 0.0 | 0.00 | 0.00 | 0.00 | 66 | 1008.5 |
| 20260831103009 | 63 | 180 | 0.0 | 0.0 | 0.00 | 0.00 | 0.00 | 67 | 1008.7 |
| 20260831101513 | 63 | 180 | 0.0 | 0.0 | 0.00 | 0.00 | 0.00 | 67 | 1008.4 |
| 20260831100005 | 64 | 180 | 0.0 | 0.9 | 0.00 | 0.00 | 0.00 | 65 | 1008.5 |
| 20260831094504 | 64 | 228 | 0.9 | 3.5 | 0.00 | 0.00 | 0.00 | 64 | 1008.4 |
| 20260831093002 | 64 | 223 | 0.0 | 0.0 | 0.00 | 0.00 | 0.00 | 64 | 1008.0 |
| 20260831091505 | 64 | 223 | 0.0 | 0.0 | 0.00 | 0.00 | 0.00 | 64 | 1008.1 |
| 20260831090101 | 65 | 223 | 0.0 | 0.9 | 0.00 | 0.00 | 0.00 | 63 | 1007.9 |
| 20260831084605 | 65 | 295 | 0.9 | 4.3 | 0.00 | 0.00 | 0.00 | 63 | 1007.8 |
| 20260831083100 | 66 | 298 | 0.0 | 3.5 | 0.00 | 0.00 | 0.00 | 61 | 1007.7 |
| 20260831081602 | 66 | 298 | 0.0 | 0.0 | 0.00 | 0.00 | 0.00 | 60 | 1007.8 |
| 20260831080125 | 67 | 298 | 0.0 | 4.3 | 0.00 | 0.00 | 0.00 | 60 | 1007.8 |
| 20260831074551 | 67 | 315 | 1.7 | 6.1 | 0.00 | 0.00 | 0.00 | 60 | 1008.2 |
| 20260831073110 | 67 | 303 | 4.3 | 6.1 | 0.00 | 0.00 | 0.00 | 59 | 1008.7 |
| 20260831071551 | 68 | 257 | 0.9 | 5.2 | 0.00 | 0.00 | 0.00 | 59 | 1009.2 |
| 20260831070041 | 68 | 324 | 0.0 | 4.3 | 0.00 | 0.00 | 0.00 | 58 | 1009.6 |
| 20260831064542 | 68 | 223 | 0.9 | 7.0 | 0.00 | 0.00 | 0.00 | 56 | 1010.0 |
| 20260831063044 | 68 | 246 | 0.0 | 3.5 | 0.00 | 0.00 | 0.00 | 54 | 1009.7 |
| 20260831061536 | 69 | 13 | 0.0 | 3.5 | 0.00 | 0.00 | 0.00 | 53 | 1009.8 |
| 20260831060034 | 70 | 275 | 0.9 | 4.3 | 0.00 | 0.00 | 0.00 | 51 | 1009.7 |
| 20260831054532 | 70 | 305 | 0.0 | 4.3 | 0.00 | 0.00 | 0.00 | 49 | 1009.8 |
| 20260831053032 | 71 | 310 | 3.5 | 7.8 | 0.00 | 0.00 | 0.00 | 48 | 1009.7 |
| 20260831051536 | 71 | 277 | 5.2 | 8.7 | 0.00 | 0.00 | 0.00 | 47 | 1009.7 |
| 20260831050030 | 70 | 290 | 0.0 | 3.5 | 0.00 | 0.00 | 0.00 | 53 | 1009.7 |
| 20260831044530 | 69 | 236 | 0.0 | 0.0 | 0.00 | 0.00 | 0.00 | 54 | 1009.7 |
| 20260831043028 | 70 | 236 | 0.0 | 2.6 | 0.00 | 0.00 | 0.00 | 54 | 1009.6 |
| 20260831041527 | 70 | 228 | 0.0 | 0.0 | 0.00 | 0.00 | 0.00 | 52 | 1009.4 |
| 20260831040030 | 71 | 26 | 0.0 | 0.0 | 0.00 | 0.00 | 0.00 | 50 | 1009.4 |
| 20260831034528 | 72 | 26 | 0.0 | 2.6 | 0.00 | 0.00 | 0.00 | 49 | 1009.1 |
| 20260831033033 | 73 | 8 | 0.0 | 0.9 | 0.00 | 0.00 | 0.00 | 47 | 1008.9 |
| 20260831031520 | 74 | 130 | 2.6 | 4.3 | 0.00 | 0.00 | 0.00 | 46 | 1008.7 |
| 20260831030017 | 75 | 1 | 0.0 | 2.6 | 0.00 | 0.00 | 0.00 | 45 | 1008.3 |
| 20260831024514 | 75 | 356 | 2.6 | 5.2 | 0.00 | 0.00 | 0.00 | 45 | 1007.8 |
| 20260831023012 | 75 | 258 | 0.9 | 6.1 | 0.00 | 0.00 | 0.00 | 43 | 1007.5 |
| 20260831021514 | 76 | 40 | 7.0 | 10.4 | 0.00 | 0.00 | 0.00 | 42 | 1006.6 |
| 20260831020008 | 76 | 27 | 6.1 | 10.4 | 0.00 | 0.00 | 0.00 | 42 | 1006.1 |
| 20260831014511 | 76 | 20 | 7.0 | 11.3 | 0.00 | 0.00 | 0.00 | 42 | 1005.9 |
| 20260831013008 | 76 | 22 | 5.2 | 11.3 | 0.00 | 0.00 | 0.00 | 42 | 1005.8 |
| 20260831011515 | 77 | 14 | 6.1 | 13.0 | 0.00 | 0.00 | 0.00 | 42 | 1005.7 |
| 20260831010006 | 77 | 34 | 10.4 | 16.5 | 0.00 | 0.00 | 0.00 | 41 | 1005.5 |
| 20260831004506 | 77 | 35 | 11.3 | 17.4 | 0.00 | 0.00 | 0.00 | 41 | 1005.5 |
| 20260831003008 | 80 | 34 | 10.4 | 21.7 | 0.00 | 0.00 | 0.00 | 36 | 1005.6 |
| 20260831001504 | 82 | 303 | 2.6 | 6.1 | 0.00 | 0.00 | 0.00 | 34 | 1004.9 |
| 20260831000004 | 83 | 277 | 4.3 | 7.8 | 0.00 | 0.00 | 0.00 | 33 | 1004.9 |
| 20260830234512 | 85 | 298 | 3.5 | 7.0 | 0.00 | 0.00 | 0.00 | 30 | 1004.7 |
| 20260830233005 | 85 | 314 | 3.5 | 7.0 | 0.00 | 0.00 | 0.00 | 29 | 1004.3 |
| 20260830231508 | 85 | 12 | 2.6 | 6.1 | 0.00 | 0.00 | 0.00 | 30 | 1004.4 |
| 20260830230002 | 85 | 312 | 6.1 | 8.7 | 0.00 | 0.00 | 0.00 | 29 | 1004.4 |
| 20260830224502 | 85 | 335 | 3.5 | 8.7 | 0.00 | 0.00 | 0.00 | 29 | 1004.4 |
| 20260830223005 | 86 | 323 | 4.3 | 8.7 | 0.00 | 0.00 | 0.00 | 28 | 1004.1 |
| 20260830221501 | 86 | 288 | 4.3 | 8.7 | 0.00 | 0.00 | 0.00 | 28 | 1004.1 |
| 20260830220103 | 86 | 328 | 1.7 | 5.2 | 0.00 | 0.00 | 0.00 | 28 | 1004.2 |
| 20260830214603 | 86 | 29 | 0.9 | 1.7 | 0.00 | 0.00 | 0.00 | 28 | 1004.1 |
| 20260830213058 | 86 | 6 | 0.9 | 3.5 | 0.00 | 0.00 | 0.00 | 28 | 1004.0 |
| 20260830211558 | 85 | 142 | 1.7 | 7.8 | 0.00 | 0.00 | 0.00 | 29 | 1003.9 |
| 20260830210058 | 86 | 157 | 3.5 | 7.8 | 0.00 | 0.00 | 0.00 | 30 | 1003.9 |
| 20260830204600 | 86 | 64 | 5.2 | 7.8 | 0.00 | 0.00 | 0.00 | 30 | 1003.7 |
| 20260830203056 | 86 | 116 | 3.5 | 9.6 | 0.00 | 0.00 | 0.00 | 30 | 1003.8 |
| 20260830201553 | 86 | 168 | 2.6 | 5.2 | 0.00 | 0.00 | 0.00 | 29 | 1004.2 |
| 20260830200051 | 85 | 253 | 2.6 | 5.2 | 0.00 | 0.00 | 0.00 | 30 | 1004.4 |
| 20260830194602 | 86 | 208 | 1.7 | 6.1 | 0.00 | 0.00 | 0.00 | 30 | 1004.5 |
| 20260830193049 | 85 | 209 | 1.7 | 6.1 | 0.00 | 0.00 | 0.00 | 30 | 1004.6 |
| 20260830191545 | 85 | 215 | 1.7 | 7.8 | 0.00 | 0.00 | 0.00 | 31 | 1004.8 |
| 20260830190042 | 84 | 193 | 2.6 | 7.0 | 0.00 | 0.00 | 0.00 | 30 | 1005.2 |
| 20260830184541 | 83 | 203 | 4.3 | 8.7 | 0.00 | 0.00 | 0.00 | 32 | 1005.4 |
| 20260830183040 | 83 | 188 | 4.3 | 9.6 | 0.00 | 0.00 | 0.00 | 31 | 1005.6 |
| 20260830181538 | 83 | 270 | 2.6 | 6.1 | 0.00 | 0.00 | 0.00 | 33 | 1005.8 |
| 20260830180036 | 82 | 239 | 2.6 | 8.7 | 0.00 | 0.00 | 0.00 | 34 | 1005.8 |
| 20260830174549 | 80 | 196 | 2.6 | 7.0 | 0.00 | 0.00 | 0.00 | 37 | 1005.8 |
| 20260830173034 | 78 | 235 | 0.9 | 5.2 | 0.00 | 0.00 | 0.00 | 39 | 1006.1 |
| 20260830171527 | 78 | 211 | 4.3 | 7.8 | 0.00 | 0.00 | 0.00 | 42 | 1006.4 |
| 20260830170027 | 78 | 236 | 5.2 | 8.7 | 0.00 | 0.00 | 0.00 | 42 | 1006.6 |
| 20260830164527 | 77 | 215 | 1.7 | 6.1 | 0.00 | 0.00 | 0.00 | 44 | 1006.5 |
| 20260830163028 | 74 | 244 | 0.9 | 7.0 | 0.00 | 0.00 | 0.00 | 48 | 1006.4 |
| 20260830161518 | 73 | 217 | 2.6 | 5.2 | 0.00 | 0.00 | 0.00 | 49 | 1006.3 |
| 20260830160016 | 72 | 226 | 1.7 | 4.3 | 0.00 | 0.00 | 0.00 | 51 | 1006.3 |
| 20260830154516 | 71 | 240 | 0.9 | 3.5 | 0.00 | 0.00 | 0.00 | 53 | 1006.4 |
| 20260830153029 | 69 | 278 | 1.7 | 7.0 | 0.00 | 0.00 | 0.00 | 54 | 1006.2 |
| 20260830151529 | 69 | 295 | 1.7 | 4.3 | 0.00 | 0.00 | 0.00 | 55 | 1006.1 |
| 20260830150013 | 68 | 230 | 2.6 | 5.2 | 0.00 | 0.00 | 0.00 | 56 | 1006.2 |
| 20260830144512 | 67 | 281 | 0.0 | 2.6 | 0.00 | 0.00 | 0.00 | 58 | 1006.1 |
| 20260830143012 | 67 | 294 | 0.9 | 3.5 | 0.00 | 0.00 | 0.00 | 58 | 1006.1 |
| 20260830141511 | 66 | 240 | 0.0 | 1.7 | 0.00 | 0.00 | 0.00 | 59 | 1006.4 |
| 20260830140012 | 66 | 315 | 0.0 | 2.6 | 0.00 | 0.00 | 0.00 | 59 | 1006.6 |
| 20260830134515 | 65 | 315 | 0.0 | 4.3 | 0.00 | 0.00 | 0.00 | 60 | 1006.6 |
| 20260830133007 | 65 | 339 | 0.0 | 1.7 | 0.00 | 0.00 | 0.00 | 61 | 1006.5 |
| 20260830131504 | 64 | 339 | 0.0 | 4.3 | 0.00 | 0.00 | 0.00 | 61 | 1006.4 |
| 20260830130004 | 64 | 339 | 1.7 | 2.6 | 0.00 | 0.00 | 0.00 | 62 | 1006.3 |
| 20260830124503 | 63 | 339 | 0.0 | 0.9 | 0.00 | 0.00 | 0.00 | 64 | 1006.2 |
| 20260830123002 | 63 | 339 | 0.0 | 0.9 | 0.00 | 0.00 | 0.00 | 64 | 1006.1 |
| 20260830121600 | 63 | 339 | 0.0 | 0.0 | 0.00 | 0.00 | 0.00 | 62 | 1006.0 |
| 20260830120107 | 64 | 339 | 0.0 | 1.7 | 0.00 | 0.00 | 0.00 | 62 | 1006.0 |
| 20260830114558 | 64 | 339 | 0.0 | 0.0 | 0.00 | 0.00 | 0.00 | 62 | 1005.9 |
| 20260830113057 | 64 | 339 | 0.0 | 0.0 | 0.00 | 0.00 | 0.00 | 61 | 1005.7 |